[[{"header":{"parameterUnit":"m.s-1","parameterCategory":1,"la1":30.2991,"la2":30.254,"lo1":-89.0895,"lo2":-89.0444,"dy":0.0017,"dx":0.0017,"nx":28,"ny":28,"refTime":"2023-06-28T21:00:00:Z","depth":0,"parameterNumber":2,"parameterNumberName":"U-component_of_WINDS"},"data":[0,0,0,0,0,0,0,0,0,0,0,0,0,0,0,0,0,0,0,0,0,0,0,0,0,0,0,0,0,0,0,0,0,0,0,0,0,0,0,0,0,0,0,0,0,0,0,0,0,0,0,0,0,0,0,0,0,0,0.046,0.046,0,0.0477,0.0477,0.0477,0.0477,0.0477,0.0477,0.0477,0.0496,0.0496,0.0497,0,0,0,0,0,0,0,0,0,0,0,0,0,0.043,0.0431,0.046,0.046,0.046,0.0477,0.0477,0.0477,0.0477,0.0477,0.0477,0.0477,0.0496,0.0496,0.0497,0,0,0,0,0,0,0,0,0,0,0,0,0,0.0445,0.0431,0.046,0.0462,0.0463,0.0476,0.0477,0.0477,0.0478,0.0477,0.0477,0.0477,0.0495,0.0496,0.0497,0.051,0,0,0.0501,0.0501,0,0,0,0,0,0,0,0,0.0444,0.0446,0.0462,0.0462,0.0463,0.0475,0.0473,0.0488,0.0478,0.0472,0.0477,0.0476,0.0489,0.0491,0.0495,0.0511,0.0512,0.0501,0.0501,0.0502,0.0502,0,0,0,0,0,0,0,0.0443,0.0445,0.0467,0.0462,0.0463,0.0463,0.0465,0.0476,0.0482,0.0472,0.0473,0.0474,0.0489,0.0494,0.0495,0.0512,0.0501,0.0502,0.0502,0.0503,0.0541,0.0541,0,0,0,0,0,0,0.0441,0.0444,0.0466,0.0467,0.0452,0.0464,0.0466,0.0471,0.0482,0.0483,0.0475,0.0474,0.0492,0.0494,0.0496,0.0512,0.0502,0.0503,0.0503,0.054,0.0541,0.0541,0,0,0,0,0,0,0.0441,0.0443,0.0465,0.0456,0.0459,0.0465,0.0471,0.0472,0.0476,0.0484,0.0485,0.0478,0.0492,0.0494,0.0507,0.0513,0.0503,0.0504,0.054,0.054,0.0541,0.0544,0,0,0,0,0,0,0.044,0.0443,0.0447,0.0456,0.0459,0.0475,0.0471,0.0472,0.0477,0.0477,0.0487,0.0488,0.0492,0.0505,0.0508,0.0514,0.0505,0.0539,0.054,0.0541,0.0544,0.0545,0.0546,0,0,0,0,0,0.0439,0.0448,0.0448,0.045,0.0465,0.0476,0.0478,0.0481,0.0478,0.0483,0.0488,0.0488,0.0511,0.0506,0.0509,0.0516,0.0539,0.054,0.0541,0.0543,0.0545,0.0546,0,0,0,0,0,0,0.0441,0.0449,0.0449,0.0461,0.0468,0.0476,0.0482,0.0482,0.049,0.049,0.0494,0.0496,0.0509,0.0513,0.0508,0.0529,0.0525,0.0526,0.0526,0.0527,0.0528,0.0527,0.0506,0,0,0,0,0,0.0442,0.045,0.0457,0.0467,0.047,0.0476,0.0481,0.0482,0.049,0.0493,0.0499,0.0506,0.0515,0.0521,0.053,0.0544,0.0547,0.055,0.0551,0.0552,0.0554,0.0562,0.0564,0.0544,0.0544,0.0544,0,0,0.0446,0.0452,0.0456,0.0468,0.0473,0.0482,0.0478,0.0487,0.0494,0.0494,0.0506,0.0511,0.052,0.0533,0.0539,0.0538,0.056,0.0553,0.0554,0.0555,0.0563,0.0565,0.0567,0.0545,0.0544,0.0544,0,0,0.0458,0.0462,0.0472,0.0477,0.0485,0.0488,0.049,0.0499,0.0502,0.0514,0.0514,0.0523,0.0538,0.0544,0.055,0.0564,0.0565,0.0567,0.0573,0.0581,0.0583,0.0584,0.059,0.0592,0.0568,0.0568,0.0568,0,0.0462,0.0474,0.0476,0.0486,0.0491,0.0491,0.0501,0.0506,0.0517,0.0521,0.0518,0.0538,0.0544,0.0559,0.0562,0.0566,0.057,0.0566,0.0582,0.0584,0.0585,0.0591,0.0593,0.0568,0.0568,0.0568,0.0568,0,0.0479,0.0488,0.0494,0.0504,0.051,0.052,0.0524,0.053,0.0531,0.0535,0.0548,0.0555,0.0565,0.0569,0.057,0.0584,0.0583,0.0581,0.0577,0.0587,0.0593,0.0595,0.0569,0.0568,0.0568,0.0568,0,0,0.0493,0.0504,0.0506,0.0511,0.052,0.0527,0.0537,0.0546,0.0552,0.0559,0.0568,0.0581,0.058,0.0586,0.0588,0.0595,0.0607,0.0592,0.0593,0.0596,0.0624,0.0626,0.0629,0.0607,0.0607,0.0607,0.0624,0,0.0506,0.0523,0.0526,0.0541,0.0549,0.0549,0.0558,0.0565,0.0569,0.0577,0.0581,0.0591,0.0588,0.0591,0.0598,0.0604,0.0613,0.0602,0.0616,0.0617,0.0615,0.0631,0.0633,0.0648,0.0626,0.0626,0.0626,0,0.0524,0.0532,0.0548,0.0556,0.056,0.0567,0.0577,0.0584,0.0592,0.0594,0.0601,0.0602,0.0613,0.0608,0.0623,0.0617,0.0622,0.0626,0.0626,0.0629,0.0623,0.0635,0.0653,0.0656,0.063,0.0629,0.0629,0,0.0534,0.0548,0.056,0.0564,0.0573,0.0579,0.0583,0.059,0.0596,0.0605,0.0609,0.0618,0.0624,0.0631,0.0636,0.0631,0.0651,0.0646,0.0655,0.0655,0.066,0.066,0.068,0.0661,0.0661,0.0661,0.0661,0,0.0549,0.056,0.0564,0.0572,0.0583,0.0586,0.0597,0.0602,0.0608,0.0617,0.0617,0.0626,0.063,0.0639,0.0642,0.0655,0.0658,0.0661,0.0662,0.0661,0.0661,0.0666,0.0665,0.0662,0.0662,0.0662,0.0662,0,0.0563,0.0566,0.0579,0.0587,0.0589,0.0597,0.0604,0.0612,0.0615,0.0626,0.0629,0.0635,0.0646,0.065,0.0664,0.0666,0.0681,0.0681,0.0679,0.0679,0.0688,0.0687,0.0713,0.0717,0.0695,0.0695,0.0695,0,0.0573,0.0581,0.0589,0.0595,0.0599,0.0608,0.0614,0.0617,0.0623,0.0633,0.064,0.065,0.0659,0.0676,0.0682,0.0692,0.0693,0.0701,0.0695,0.0694,0.0695,0.0695,0.0696,0.0703,0.0703,0.0703,0.0703,0,0.0591,0.0592,0.06,0.061,0.0617,0.0624,0.0631,0.0636,0.064,0.0647,0.0658,0.0665,0.0678,0.0689,0.07,0.0705,0.0705,0.0705,0.0708,0.0708,0.0707,0.0709,0.0683,0.0705,0.0705,0.0705,0.0705,0.0705,0.0604,0.0611,0.0618,0.0628,0.0633,0.064,0.0648,0.0652,0.0661,0.0672,0.0673,0.0685,0.0693,0.0707,0.0713,0.0723,0.0721,0.0724,0.0725,0.0727,0.0728,0.0704,0.0724,0.0724,0.0724,0.0724,0.0724,0,0.0623,0.0627,0.0636,0.0646,0.0653,0.0652,0.066,0.0667,0.0677,0.0684,0.0693,0.0706,0.0716,0.0723,0.0734,0.074,0.0741,0.0743,0.0744,0.0745,0.0728,0.0725,0.0743,0.0743,0.0743,0.0743,0.0743,0.0743,0.0633,0.0646,0.0648,0.0664,0.0668,0.068,0.0685,0.0691,0.0697,0.0711,0.072,0.0724,0.0731,0.0742,0.0752,0.0754,0.0759,0.0761,0.0763,0.0748,0.0746,0.0744,0.0742,0.0762,0.0762,0.0779,0.0779,0.0779]},{"header":{"parameterUnit":"m.s-1","parameterCategory":1,"la1":30.2991,"la2":30.254,"lo1":-89.0895,"lo2":-89.0444,"dy":0.0017,"dx":0.0017,"nx":28,"ny":28,"refTime":"2023-06-28T21:00:00:Z","depth":0,"parameterNumber":3,"parameterNumberName":"V-component_of_WINDS"},"data":[0,0,0,0,0,0,0,0,0,0,0,0,0,0,0,0,0,0,0,0,0,0,0,0,0,0,0,0,0,0,0,0,0,0,0,0,0,0,0,0,0,0,0,0,0,0,0,0,0,0,0,0,0,0,0,0,0,0,1.9097,1.9097,0,1.9139,1.914,1.914,1.9169,1.9169,1.9169,1.9169,1.9211,1.9212,1.9213,0,0,0,0,0,0,0,0,0,0,0,0,0,1.9038,1.9039,1.9097,1.9097,1.9098,1.9139,1.914,1.914,1.9169,1.9169,1.9169,1.9169,1.9211,1.9212,1.9213,0,0,0,0,0,0,0,0,0,0,0,0,0,1.907,1.9039,1.9097,1.9117,1.9119,1.9139,1.914,1.914,1.9169,1.9169,1.9169,1.9169,1.9211,1.9212,1.9213,1.9216,0,0,1.9218,1.9218,0,0,0,0,0,0,0,0,1.9068,1.9072,1.9113,1.9116,1.9118,1.9149,1.9135,1.9166,1.9168,1.915,1.9169,1.917,1.919,1.9193,1.9201,1.9218,1.922,1.9218,1.9218,1.9219,1.9219,0,0,0,0,0,0,0,1.9066,1.9071,1.9113,1.9114,1.9117,1.9123,1.9128,1.9141,1.9168,1.9151,1.9154,1.9158,1.9191,1.9199,1.9202,1.922,1.9218,1.9219,1.922,1.922,1.9241,1.9241,0,0,0,0,0,0,1.9061,1.9069,1.9112,1.9115,1.9094,1.9124,1.913,1.9139,1.9168,1.9172,1.9158,1.9159,1.9197,1.92,1.9203,1.9208,1.9219,1.922,1.9221,1.9241,1.9241,1.9241,0,0,0,0,0,0,1.906,1.9065,1.911,1.9092,1.9099,1.9125,1.9135,1.9139,1.9147,1.9173,1.9177,1.9161,1.9197,1.9201,1.9212,1.921,1.9221,1.9222,1.9242,1.9241,1.9241,1.9217,0,0,0,0,0,0,1.9058,1.9064,1.9066,1.9092,1.91,1.9119,1.9135,1.914,1.915,1.9152,1.9177,1.9181,1.9198,1.921,1.9214,1.9212,1.9223,1.9242,1.9241,1.9241,1.9218,1.9216,1.9214,0,0,0,0,0,1.9056,1.9057,1.9066,1.9071,1.9102,1.9119,1.9123,1.9143,1.9149,1.9151,1.9167,1.918,1.9209,1.9211,1.9215,1.9214,1.9242,1.9242,1.9241,1.9219,1.9216,1.9214,0,0,0,0,0,0,1.9029,1.9061,1.9071,1.9081,1.9097,1.9124,1.9127,1.9139,1.9153,1.9155,1.9178,1.9183,1.9192,1.9204,1.9205,1.9217,1.9227,1.9227,1.9209,1.9207,1.9204,1.9201,1.9225,0,0,0,0,0,1.9025,1.9036,1.9063,1.9069,1.9077,1.91,1.9108,1.9122,1.9139,1.9146,1.9163,1.9179,1.9192,1.92,1.9213,1.922,1.9225,1.9221,1.9219,1.9217,1.9216,1.922,1.9218,1.9239,1.9239,1.9239,0,0,1.9015,1.9034,1.904,1.9065,1.9079,1.9089,1.9106,1.9117,1.9125,1.9148,1.9159,1.9172,1.9192,1.92,1.9205,1.9211,1.9212,1.9216,1.9214,1.9215,1.9219,1.9217,1.9215,1.9238,1.9238,1.9238,0,0,1.9003,1.9019,1.9026,1.904,1.9061,1.9076,1.9078,1.9102,1.9112,1.9124,1.9141,1.9151,1.9173,1.9186,1.9195,1.9187,1.92,1.9191,1.9179,1.9183,1.9181,1.918,1.9176,1.9175,1.9191,1.9191,1.9191,0,1.8989,1.9006,1.9027,1.9037,1.9047,1.9069,1.9075,1.9087,1.9112,1.9118,1.9124,1.9151,1.9166,1.9177,1.9176,1.9183,1.9185,1.9188,1.918,1.9179,1.9178,1.9175,1.9173,1.9189,1.919,1.919,1.919,0,1.8987,1.8999,1.9001,1.9024,1.9035,1.9043,1.9064,1.9072,1.9085,1.9099,1.9111,1.9129,1.9146,1.915,1.9162,1.9163,1.9166,1.9175,1.9186,1.9174,1.9172,1.9171,1.9188,1.9188,1.9188,1.9189,0,0,1.896,1.8994,1.8995,1.9005,1.903,1.9039,1.9047,1.9064,1.907,1.9086,1.9093,1.9111,1.912,1.9131,1.9145,1.9148,1.914,1.9157,1.9158,1.9153,1.9141,1.9133,1.9131,1.9148,1.9148,1.9148,1.9139,0,1.8951,1.8968,1.8987,1.8997,1.9008,1.9028,1.9036,1.9051,1.9065,1.9075,1.909,1.9102,1.9114,1.912,1.9124,1.914,1.9137,1.9141,1.9154,1.9155,1.9148,1.913,1.9122,1.9113,1.9138,1.9138,1.9138,0,1.8944,1.8958,1.8969,1.8993,1.8998,1.9004,1.9021,1.9031,1.9049,1.9058,1.907,1.9085,1.9094,1.9104,1.9116,1.9118,1.9125,1.9133,1.9134,1.9135,1.9145,1.9131,1.911,1.9109,1.9137,1.9137,1.9137,0,1.8922,1.8945,1.8954,1.8962,1.899,1.8993,1.9005,1.9023,1.9032,1.9046,1.9052,1.9067,1.9075,1.9087,1.9105,1.911,1.9116,1.9127,1.9123,1.9123,1.9123,1.9123,1.9103,1.9128,1.9128,1.9128,1.9128,0,1.891,1.8916,1.8944,1.895,1.8957,1.8978,1.8984,1.8998,1.9014,1.9022,1.9041,1.9048,1.9072,1.9082,1.9096,1.9104,1.9108,1.9115,1.9119,1.9113,1.9112,1.9118,1.9118,1.9128,1.9128,1.9128,1.9128,0,1.8886,1.8906,1.8918,1.8942,1.8949,1.8953,1.8974,1.898,1.8994,1.9004,1.9008,1.9031,1.9043,1.9063,1.9081,1.9091,1.9096,1.9103,1.909,1.9092,1.9087,1.9087,1.907,1.9068,1.9095,1.9095,1.9095,0,1.8877,1.8882,1.8907,1.8914,1.8925,1.8936,1.8945,1.8966,1.8975,1.8995,1.8998,1.9012,1.9025,1.9044,1.9062,1.9076,1.9082,1.9075,1.9084,1.9078,1.9081,1.908,1.9081,1.9073,1.9072,1.9072,1.9072,0,1.8859,1.8868,1.888,1.8896,1.8906,1.8919,1.8933,1.8937,1.8961,1.897,1.8983,1.8993,1.9011,1.9025,1.9041,1.9053,1.9066,1.9069,1.9069,1.9063,1.9055,1.9058,1.9084,1.9069,1.9069,1.907,1.907,1.907,1.8842,1.8847,1.8865,1.8878,1.8891,1.8903,1.891,1.8925,1.8936,1.8953,1.8965,1.8977,1.8994,1.9018,1.9029,1.9038,1.9044,1.9044,1.9044,1.9043,1.9041,1.9054,1.9041,1.9042,1.9042,1.9042,1.9042,0,1.8823,1.8836,1.8848,1.8866,1.8876,1.8888,1.8904,1.8912,1.8922,1.8937,1.8949,1.8964,1.8977,1.8996,1.901,1.9014,1.902,1.9017,1.9017,1.9019,1.9035,1.9034,1.9012,1.9012,1.9012,1.9012,1.9012,1.9012,1.8815,1.8824,1.8835,1.885,1.8863,1.8875,1.8883,1.8894,1.8906,1.8922,1.8933,1.8945,1.8961,1.8977,1.8989,1.8995,1.8999,1.8993,1.9,1.9015,1.9018,1.902,1.9019,1.8994,1.8994,1.8983,1.8983,1.8983]}]]